Theta_e
324 316 310 310 300 299 294 298 304 304 305 310 313 313 315 317 314 307 332 336 336 338 340 342 346 346 344 346 348 348 347 348 348 347 347 347 345 343 342 342 338 340 339 339 338 338 339 339 339
321 317 311 305 295 291 294 300 302 306 309 312 313 314 315 314 323 327 330 336 336 337 337 339 343 344 343 344 346 348 348 347 347 346 345 346 345 344 341 339 338 338 338 338 338 338 338 338 339
314 315 305 300 293 291 295 300 304 307 311 310 310 316 317 316 322 325 334 334 333 334 337 340 342 344 344 343 343 345 346 347 346 345 344 344 344 344 343 342 341 338 338 337 338 338 337 337 337
311 310 306 296 293 297 299 303 308 307 307 309 314 312 320 325 326 329 335 333 332 334 338 341 342 343 342 341 341 343 343 344 342 342 343 342 343 344 343 342 339 337 336 336 336 336 335 335 335
311 305 299 295 295 296 303 308 308 306 306 305 310 310 316 325 330 330 333 332 331 332 335 339 341 342 342 342 342 341 342 340 340 340 340 341 342 342 343 342 339 337 336 335 335 333 333 332 332
309 304 296 295 295 297 303 308 308 304 306 308 314 314 316 326 327 327 333 331 332 332 335 337 335 338 340 340 340 340 340 339 339 339 340 341 341 342 343 341 338 337 336 335 334 333 331 330 331
306 302 297 298 296 297 301 308 305 305 306 304 318 312 317 322 327 327 329 331 331 333 333 334 335 335 334 335 336 338 338 338 339 338 338 337 337 338 339 339 338 336 336 334 333 332 331 330 330
310 307 301 298 295 298 303 306 306 307 307 313 318 313 314 321 328 326 326 330 329 329 330 330 332 333 332 331 330 332 334 335 334 333 330 329 330 331 333 333 337 335 334 334 333 331 330 329 329
315 304 302 301 300 299 304 304 305 307 310 311 314 316 322 325 326 323 322 326 328 328 327 329 329 330 331 331 326 328 329 330 329 328 325 324 325 326 328 329 333 334 333 331 331 331 329 328 326
310 305 304 311 308 299 304 303 304 305 306 307 317 324 326 326 325 322 320 321 325 326 326 329 328 328 331 333 329 328 327 326 326 325 324 325 324 324 326 324 327 330 329 330 329 328 328 324 321
311 306 311 313 312 304 304 303 304 304 302 307 312 320 323 323 322 322 321 320 322 325 328 328 328 329 327 329 328 327 326 326 324 323 324 324 323 323 323 321 321 320 319 319 321 320 319 319 319
306 314 315 316 316 303 301 302 302 302 303 307 319 324 324 322 322 322 322 321 322 324 326 327 328 328 327 326 327 326 326 326 325 325 325 321 319 320 321 321 321 320 320 319 317 316 316 317 318
303 308 315 308 308 303 303 300 300 301 302 308 321 325 322 322 322 323 324 323 323 324 325 326 328 329 328 328 330 327 327 325 325 325 326 325 322 321 319 319 319 321 319 318 315 315 316 315 316
306 308 311 303 303 301 301 298 300 301 302 312 321 322 322 322 324 324 322 323 324 324 325 326 325 330 330 329 328 327 327 327 325 324 326 326 325 323 321 318 317 316 316 315 315 313 315 315 316
305 302 303 301 303 302 300 299 297 302 301 306 313 317 321 322 325 324 325 325 325 325 325 324 325 329 330 330 329 328 328 328 326 325 325 326 327 325 322 319 318 317 316 315 319 318 317 316 316
299 300 297 300 303 304 304 299 305 303 301 300 303 310 315 318 324 325 326 326 324 324 323 325 327 326 331 330 329 329 329 328 327 327 326 326 328 327 324 322 321 321 320 320 319 318 317 317 316
294 289 293 298 302 299 299 299 306 310 300 300 299 302 311 316 318 323 325 326 324 325 324 324 325 324 326 328 329 329 327 328 327 327 327 327 328 328 325 324 323 324 322 320 321 321 320 320 318
289 292 294 294 299 297 295 296 302 302 301 300 299 299 302 312 318 321 324 326 325 326 325 323 325 324 324 326 327 327 325 326 327 327 327 327 328 328 326 324 326 326 323 319 318 320 320 319 318
297 296 294 298 302 298 296 296 298 301 301 300 299 301 301 306 315 320 322 324 325 325 325 324 323 323 325 324 323 324 323 324 325 326 327 327 328 328 327 324 324 322 320 319 318 318 319 316 317
300 298 298 295 297 298 294 294 298 300 303 303 301 300 301 301 307 316 318 319 321 323 325 325 324 323 324 326 325 325 325 324 326 326 326 326 326 328 327 326 324 323 320 318 318 319 315 316 317
300 297 297 300 295 293 290 291 293 299 300 302 304 304 305 304 304 312 316 318 321 320 322 325 325 324 324 324 324 321 322 321 321 323 325 325 326 327 327 326 325 324 322 320 319 317 315 315 315
296 303 302 297 294 290 292 283 290 295 297 300 301 300 303 303 301 305 315 316 319 321 322 324 325 326 325 325 323 323 322 321 323 325 325 326 326 326 327 327 326 325 323 319 319 318 316 314 313
298 304 299 297 294 291 289 285 288 292 292 296 300 301 300 299 301 301 310 317 320 323 323 324 325 326 327 327 325 323 322 323 323 324 324 325 326 326 326 326 326 325 323 322 319 316 316 316 315
301 299 297 295 291 283 288 288 286 290 293 293 296 301 302 298 299 300 301 311 316 319 322 323 324 325 327 328 326 324 323 323 322 323 324 325 326 326 325 326 327 326 325 323 322 321 318 319 317
297 295 283 283 283 282 283 285 290 292 294 294 295 297 299 300 300 299 298 299 310 314 318 320 322 324 324 326 328 327 326 325 323 324 325 325 326 326 326 326 326 326 326 325 324 322 321 320 318
294 293 283 278 277 279 281 280 286 296 298 296 296 294 293 293 294 297 301 299 301 311 316 319 318 322 321 325 326 328 328 327 326 326 326 326 327 328 329 327 327 326 326 325 324 324 322 321 319
291 291 291 281 272 278 280 284 291 293 294 293 295 294 294 292 295 295 294 297 298 302 310 316 318 320 319 322 323 325 328 328 327 326 327 327 328 328 329 328 327 326 325 324 323 322 318 317 315
295 296 285 283 273 273 279 280 283 289 292 294 292 293 293 292 292 294 294 295 296 298 299 302 308 311 311 314 317 322 324 327 328 326 326 326 327 327 329 328 326 324 322 322 320 318 314 314 311
290 291 289 287 283 277 275 280 288 291 292 292 291 292 293 293 294 294 295 296 297 298 298 298 299 300 301 303 305 310 315 318 321 324 324 324 324 326 325 325 325 322 321 318 317 313 312 311 305
292 291 289 284 281 282 281 281 291 292 291 291 291 293 292 294 294 294 296 297 298 298 300 300 300 300 301 303 304 307 311 312 314 318 321 320 320 319 319 318 317 315 313 312 312 308 308 306 303
Wind_Speed
9 12 2 5 6 5 2 2 6 5 5 3 3 9 9 4 4 6 8 15 15 11 8 9 12 13 12 12 12 12 13 16 16 18 18 18 19 19 20 17 18 18 19 19 18 18 17 16 16
6 7 5 2 5 3 4 4 9 4 5 7 7 7 7 4 4 12 8 14 15 12 8 7 12 13 12 11 12 14 15 15 16 17 17 17 17 18 18 17 17 18 18 18 18 17 16 16 15
7 4 3 4 2 1 4 4 8 5 6 4 5 7 5 4 4 5 13 14 15 11 8 9 12 13 12 12 10 13 16 17 18 17 17 16 16 17 17 18 17 17 18 18 18 17 16 15 14
4 5 4 4 1 6 5 6 10 6 3 6 7 8 5 5 6 7 15 15 13 10 8 12 16 14 12 13 12 11 15 16 16 17 17 16 16 13 16 19 18 17 17 17 17 16 14 13 14
3 3 1 1 2 1 4 9 8 6 6 2 6 3 4 5 12 15 13 14 13 8 6 10 16 15 13 14 13 14 14 15 15 15 15 15 12 16 16 19 18 16 16 16 16 16 14 13 13
3 3 2 3 2 2 5 7 9 5 6 6 8 6 2 5 9 9 13 12 13 11 6 8 12 12 13 13 14 14 13 13 14 14 14 13 14 14 14 19 17 15 15 15 15 15 13 11 10
3 3 2 4 5 3 4 5 8 8 6 3 11 6 4 5 7 11 12 11 12 11 8 5 6 9 10 12 12 12 12 12 12 11 11 11 11 12 12 17 15 14 13 13 13 12 10 9 9
4 2 5 3 2 2 3 4 4 8 2 4 8 7 6 7 9 9 13 10 12 9 8 7 6 6 6 5 11 10 10 11 11 11 11 9 10 10 11 12 12 12 11 11 10 9 7 6 5
3 4 3 4 8 1 1 4 3 2 6 5 4 6 9 13 10 8 8 7 9 9 10 7 7 6 6 6 6 8 9 9 9 8 9 7 5 6 7 9 10 10 9 9 8 6 5 3 5
4 2 8 3 3 5 3 4 6 5 4 4 5 7 17 13 13 12 8 10 10 11 10 10 8 8 7 6 5 5 6 4 5 4 4 3 4 4 6 6 8 8 7 6 5 4 2 1 2
3 5 3 3 2 5 3 3 1 9 2 7 10 10 11 7 9 13 10 8 7 8 9 10 8 9 8 7 4 3 3 3 3 6 5 4 4 4 3 3 2 2 3 1 1 2 2 3 2
3 5 5 6 2 4 2 1 3 5 4 7 17 18 11 10 11 11 13 9 9 7 7 7 11 11 8 6 4 5 5 4 4 4 6 4 3 4 3 3 3 3 2 3 2 1 2 2 2
7 5 8 2 4 6 0 2 4 5 4 4 17 15 14 13 9 6 9 9 11 10 8 7 8 7 9 9 6 5 5 5 6 5 6 5 5 4 4 4 4 4 3 3 3 2 2 2 1
7 7 7 7 6 4 4 2 4 5 6 8 18 17 16 17 16 7 8 11 14 12 11 8 8 10 8 8 7 5 4 5 5 5 6 7 5 5 5 5 4 4 4 3 4 4 3 2 3
4 7 3 5 5 4 5 6 7 7 5 10 10 10 12 15 16 20 15 15 15 13 14 12 9 10 12 11 9 6 5 5 4 5 6 6 6 6 6 4 4 4 4 4 3 3 3 2 2
6 4 6 5 7 5 7 8 10 9 7 9 10 9 10 12 20 17 16 15 13 14 15 13 11 9 13 11 9 7 7 6 5 5 4 7 6 7 6 5 5 4 4 4 3 2 2 3 2
2 4 4 4 12 5 7 4 9 8 9 10 10 10 12 12 10 12 15 16 16 16 16 15 13 10 12 11 9 9 8 7 6 5 5 7 7 7 6 5 5 6 5 4 4 3 3 2 1
5 6 4 6 7 6 8 7 7 5 3 12 11 10 10 14 19 16 16 15 12 15 16 16 14 14 9 8 8 7 6 6 6 6 7 7 8 9 6 5 6 6 4 4 3 4 3 3 3
9 6 9 9 7 7 11 7 11 11 5 8 8 9 9 13 15 17 17 15 13 12 15 17 16 16 12 8 9 8 10 8 7 7 10 10 8 9 8 5 5 5 6 6 6 4 6 4 4
10 11 10 2 3 5 5 9 9 9 13 8 10 10 10 6 9 13 13 13 15 15 14 14 16 15 14 10 8 6 6 5 8 7 8 9 9 11 10 8 7 8 5 6 6 5 3 3 4
11 15 9 9 4 2 1 8 7 10 8 9 11 11 12 10 11 14 15 15 14 13 14 15 16 16 14 14 7 3 3 2 3 6 8 9 11 11 11 9 7 8 6 6 7 6 7 5 3
17 7 6 9 5 4 5 7 6 6 11 13 13 10 12 11 7 9 15 13 14 16 13 12 14 15 14 13 10 13 11 11 11 11 9 9 10 11 10 9 8 9 6 6 7 6 4 3 4
8 18 1 5 4 5 3 0 8 5 6 8 15 15 14 11 11 10 12 17 17 16 15 15 12 14 15 14 14 11 12 9 4 4 7 7 6 8 9 9 9 9 8 9 8 6 7 6 3
12 17 8 5 4 4 8 6 6 5 8 6 5 12 14 11 11 10 10 9 11 9 11 11 12 13 13 13 15 15 15 10 6 8 7 7 6 8 10 10 10 10 10 10 9 10 9 10 8
13 19 4 2 4 8 1 6 12 6 8 5 6 6 7 8 8 9 9 8 9 10 11 11 13 15 11 13 15 17 17 14 12 11 9 8 8 7 12 13 13 11 12 12 10 9 10 10 9
25 16 10 10 6 4 3 9 9 13 12 6 5 3 4 5 5 7 9 10 9 10 12 13 13 16 13 16 17 16 16 10 12 12 10 9 9 10 12 12 13 14 13 12 11 8 9 8 8
10 13 8 9 3 4 6 7 10 5 6 6 7 5 7 5 5 7 4 4 7 7 9 11 11 13 10 14 11 13 14 16 12 13 10 10 11 10 12 13 13 13 12 12 12 9 9 7 5
15 10 6 2 7 4 5 5 7 6 11 8 5 7 6 3 3 2 2 2 2 2 3 4 5 7 4 5 7 9 10 11 12 10 13 12 9 10 13 13 12 11 10 10 11 9 6 9 5
6 14 6 7 5 7 4 9 9 13 11 10 8 7 7 5 3 2 3 3 3 2 2 2 4 5 6 6 4 4 5 6 6 9 8 9 7 8 8 8 10 11 12 10 8 6 7 8 7
6 9 1 6 7 3 4 7 4 9 11 11 9 8 5 5 5 4 4 4 3 3 3 3 2 2 3 3 4 5 5 4 5 5 6 6 6 4 5 6 6 6 6 6 8 8 8 9 8
Wind_Direction
329 311 306 34 47 63 241 65 121 82 46 83 55 89 108 58 42 137 111 109 117 116 105 99 101 100 99 96 93 96 99 101 100 97 95 97 97 92 89 84 83 81 79 79 79 79 79 78 68
322 315 32 61 85 34 273 147 101 107 131 102 55 97 47 63 42 113 101 128 125 119 109 100 101 101 103 98 96 95 98 102 103 100 96 98 104 99 98 92 87 83 82 81 82 82 81 74 60
303 176 63 97 108 216 170 122 131 125 126 111 96 54 87 114 84 118 130 124 105 112 115 117 112 104 102 87 82 93 89 90 93 99 100 99 102 100 95 98 88 83 82 80 80 79 75 70 60
346 2 356 94 293 292 116 159 123 114 73 71 108 75 67 224 141 128 127 113 113 119 118 113 113 106 104 105 102 98 98 98 99 98 97 98 96 93 106 102 92 89 86 84 82 82 78 71 56
28 39 348 289 251 89 74 140 124 124 137 89 112 98 71 9 120 119 126 120 116 115 116 121 120 118 112 108 107 108 102 109 108 105 102 98 98 87 103 104 102 96 93 89 85 81 74 65 55
353 81 12 262 174 145 102 167 124 114 135 132 79 98 84 144 113 126 128 123 125 126 111 116 118 121 119 112 111 111 115 118 116 116 114 107 97 100 99 106 102 100 95 90 85 81 78 72 62
83 64 259 304 206 107 146 123 132 145 124 133 150 94 169 153 154 127 120 125 126 127 121 113 112 120 120 121 115 116 118 112 109 106 104 102 95 98 98 102 103 102 95 91 88 85 80 70 51
97 68 337 293 271 144 171 81 112 100 153 117 139 147 185 194 154 132 122 134 130 133 134 137 131 120 112 121 125 119 108 107 105 103 100 86 87 91 89 89 100 105 105 105 106 105 98 88 76
119 60 254 281 4 198 146 109 29 63 95 57 28 150 160 157 129 123 121 135 142 148 146 147 150 141 127 115 106 107 110 113 115 120 124 112 109 98 92 111 112 117 114 111 113 118 109 67 14
103 149 205 203 299 328 159 98 132 94 97 69 53 24 128 147 143 148 156 153 157 160 158 160 160 152 144 137 135 123 130 135 138 140 136 72 118 113 101 110 118 123 124 128 136 129 129 257 321
204 205 220 270 329 325 279 102 98 119 194 187 167 152 150 149 154 160 167 164 161 161 164 166 162 159 148 144 154 147 153 160 166 164 168 151 126 123 122 124 120 137 138 144 85 43 80 110 95
192 218 188 251 190 288 342 354 144 169 217 177 161 158 155 166 176 171 174 168 161 161 157 183 162 158 151 148 161 173 166 177 181 186 157 137 133 143 160 168 181 184 185 209 170 133 118 83 83
209 208 182 242 178 264 355 251 185 246 182 145 138 153 165 177 186 199 179 168 170 178 177 191 161 157 160 156 181 165 185 176 173 173 166 155 165 172 174 191 187 196 178 177 160 171 172 162 177
217 227 192 191 209 225 184 247 161 260 154 139 153 172 171 178 185 192 184 177 175 179 186 197 184 164 164 165 173 183 174 189 174 177 181 176 174 172 174 175 184 187 187 180 177 184 190 204 196
195 179 216 191 195 240 147 281 227 229 130 161 175 176 177 186 180 197 192 193 187 186 185 186 195 166 170 176 176 184 183 180 186 183 188 188 179 175 169 172 178 189 185 184 166 182 179 198 240
154 125 181 218 172 246 140 250 216 218 181 195 187 186 186 188 200 197 190 199 190 180 183 187 193 176 176 178 180 185 204 196 183 176 186 194 184 180 169 173 183 184 171 170 176 189 237 244 216
244 179 163 194 193 157 185 241 231 216 187 209 202 199 196 196 199 202 202 198 188 183 178 184 190 190 178 176 180 188 190 201 197 179 182 202 189 186 175 182 190 171 174 178 192 184 192 199 203
157 132 180 200 198 186 207 231 272 271 203 209 208 209 202 194 206 202 205 200 190 187 179 179 186 191 182 176 179 189 186 185 189 201 200 193 198 193 186 189 185 172 168 178 188 175 191 205 202
163 181 181 215 209 163 215 217 237 264 264 233 218 225 203 205 208 197 194 190 193 187 183 185 183 190 184 186 184 188 198 196 196 195 203 201 201 196 193 193 184 170 174 193 190 194 180 231 203
177 194 209 341 119 162 255 258 236 224 242 208 214 226 235 210 201 200 191 180 189 188 187 188 193 190 194 193 200 207 192 207 200 201 206 207 195 195 196 196 188 186 178 191 190 198 193 212 176
175 208 193 217 166 262 22 279 223 229 212 219 216 214 218 206 206 200 196 191 187 186 189 192 193 192 196 194 180 149 140 143 178 209 207 207 201 197 197 200 191 195 188 202 198 202 187 209 189
186 190 259 148 134 207 151 272 291 224 234 221 228 218 217 213 196 199 200 191 189 196 190 190 188 190 194 187 191 201 206 205 210 207 206 205 198 197 195 197 194 198 196 206 204 192 195 154 204
191 137 346 155 154 66 247 132 265 263 275 234 224 225 221 211 206 211 207 202 200 194 193 192 183 190 191 191 195 200 214 221 207 206 205 206 199 196 191 193 195 200 200 208 195 186 206 200 183
151 126 92 350 96 249 201 161 258 229 218 236 230 222 223 214 215 223 205 203 213 192 193 186 184 197 194 192 199 204 211 206 200 201 197 198 197 203 207 197 200 204 206 206 206 209 203 205 201
137 140 112 172 219 222 130 196 244 246 240 194 168 187 221 219 225 227 234 203 196 188 189 187 187 201 189 190 198 203 209 203 206 201 201 191 194 203 211 204 210 209 210 211 205 205 213 207 199
170 165 151 167 196 201 339 228 245 223 240 234 172 160 179 195 211 200 209 213 207 198 194 192 190 202 191 196 204 207 208 206 210 207 204 210 212 215 209 209 211 212 208 209 206 209 209 196 204
188 194 154 99 25 89 215 284 306 243 236 206 202 215 242 268 259 237 228 203 225 205 198 194 198 213 204 206 207 208 207 210 209 210 204 209 210 211 206 208 210 211 211 207 204 207 195 179 175
190 160 125 19 138 200 257 269 228 214 204 213 184 180 203 172 99 84 137 155 93 143 193 192 201 212 209 213 212 214 212 211 212 203 209 213 213 207 206 203 200 200 205 206 204 209 177 165 171
145 196 179 123 148 157 154 253 210 203 178 187 184 174 167 154 164 156 128 120 125 108 134 168 200 217 227 224 230 240 237 221 209 208 208 213 214 207 206 196 205 204 197 194 198 186 182 176 161
184 209 166 165 204 190 145 268 302 184 161 149 167 162 155 155 172 174 180 179 191 202 197 198 226 220 221 206 188 198 196 197 199 205 200 179 185 193 203 193 186 188 172 165 181 175 181 170 167